{"data":{"norad_id":63562,"intl_designator":"2025-075Q","name":"STARLINK-32951","alt_names":[],"object_type":"PAYLOAD","status":"ACTIVE","operator":null,"country":"US","launch_date":"2025-04-13","launch_site_code":"AFETR","launch_vehicle":null,"mission":null,"orbit_class":"UNKNOWN","rcs_meters":null,"size_class":null,"mass_kg":null,"dimensions":null,"purposes":["comms"],"wikipedia_slug":null,"has_3d_model":false,"image_url":null,"decayed_at":null,"tle_current":{"epoch":"2026-05-25T04:14:27.269664Z","epoch_age_seconds":56614,"freshness":"FRESH","line1":"1 63562U 25075Q   26145.17670451  .00011007  00000+0  40880-3 0  9991","line2":"2 63562  42.9986 198.7731 0001304 277.1026  82.9677 15.27588074 63635","mean_motion":15.27588074,"eccentricity":0.0001304,"inclination_deg":42.9986,"raan_deg":198.7731,"arg_perigee_deg":277.1026,"mean_anomaly_deg":82.9677,"bstar":0.0004088,"rev_number":6363,"period_min":94.266250470871,"perigee_km":482.13022417121,"apogee_km":483.91961519986,"semimajor_km":6861.1619196855,"source":"CELESTRAK","updated_at":"2026-05-25T13:38:20.043577Z"}}}